Time,TemperatureF,DewpointF,PressureIn,WindDirection,WindDirectionDegrees,WindSpeedMPH,WindSpeedGustMPH,Humidity,HourlyPrecipIn,Conditions,Clouds,dailyrainin,SoftwareType,DateUTC
2013-03-23 00:22:00,52.0,49.0,29.91,ESE,110,4.0,-999.0,91,0.00,,,-99.99,,2013-03-23 07:22:00,
2013-03-23 00:32:00,52.0,49.0,29.91,ESE,110,4.0,-999.0,91,0.00,,,-99.99,,2013-03-23 07:32:00,
2013-03-23 00:42:00,52.0,49.0,29.91,ESE,110,4.0,-999.0,91,0.00,,,-99.99,,2013-03-23 07:42:00,
2013-03-23 00:52:00,52.0,49.0,29.91,ESE,110,4.0,-999.0,91,0.00,,,-99.99,,2013-03-23 07:52:00,
2013-03-23 01:22:00,52.0,49.0,29.92,North,0,0.0,-999.0,88,0.00,,,-99.99,,2013-03-23 08:22:00,
2013-03-23 01:32:00,52.0,49.0,29.92,North,0,0.0,-999.0,88,0.00,,,-99.99,,2013-03-23 08:32:00,
2013-03-23 01:42:00,52.0,49.0,29.92,North,0,0.0,-999.0,88,0.00,,,-99.99,,2013-03-23 08:42:00,
2013-03-23 01:52:00,52.0,49.0,29.92,North,0,0.0,-999.0,88,0.00,,,-99.99,,2013-03-23 08:52:00,
2013-03-23 02:22:00,51.0,48.0,29.92,East,90,1.0,-999.0,91,0.00,,,-99.99,,2013-03-23 09:22:00,
2013-03-23 02:33:00,51.0,48.0,29.92,East,90,1.0,-999.0,91,0.00,,,-99.99,,2013-03-23 09:33:00,
2013-03-23 02:42:00,51.0,48.0,29.92,East,90,1.0,-999.0,91,0.00,,,-99.99,,2013-03-23 09:42:00,
2013-03-23 02:52:00,51.0,48.0,29.92,East,90,1.0,-999.0,91,0.00,,,-99.99,,2013-03-23 09:52:00,
2013-03-23 03:23:00,51.0,49.0,29.91,East,100,1.0,-999.0,92,0.00,,,-99.99,,2013-03-23 10:23:00,
2013-03-23 03:33:00,51.0,49.0,29.91,East,100,1.0,-999.0,92,0.00,,,-99.99,,2013-03-23 10:33:00,
2013-03-23 03:42:00,51.0,49.0,29.91,East,100,1.0,-999.0,92,0.00,,,-99.99,,2013-03-23 10:42:00,
2013-03-23 03:52:00,51.0,49.0,29.91,East,100,1.0,-999.0,92,0.00,,,-99.99,,2013-03-23 10:52:00,
2013-03-23 04:22:00,51.0,49.0,29.91,North,0,0.0,-999.0,92,0.01,,,-99.99,,2013-03-23 11:22:00,
2013-03-23 04:32:00,51.0,49.0,29.91,North,0,0.0,-999.0,92,0.01,,,-99.99,,2013-03-23 11:32:00,
2013-03-23 04:42:00,51.0,49.0,29.91,North,0,0.0,-999.0,92,0.01,,,-99.99,,2013-03-23 11:42:00,
2013-03-23 04:51:00,51.0,49.0,29.91,North,0,0.0,-999.0,92,0.01,,,-99.99,,2013-03-23 11:51:00,
2013-03-23 05:22:00,52.0,50.0,29.91,North,0,0.0,-999.0,92,0.00,,,-99.99,,2013-03-23 12:22:00,
2013-03-23 05:33:00,52.0,50.0,29.91,North,0,0.0,-999.0,92,0.00,,,-99.99,,2013-03-23 12:33:00,
2013-03-23 05:42:00,52.0,50.0,29.91,North,0,0.0,-999.0,92,0.00,,,-99.99,,2013-03-23 12:42:00,
2013-03-23 05:52:00,52.0,50.0,29.91,North,0,0.0,-999.0,92,0.00,,,-99.99,,2013-03-23 12:52:00,
2013-03-23 06:22:00,51.0,49.0,29.93,North,0,0.0,-999.0,92,0.00,,,-99.99,,2013-03-23 13:22:00,
2013-03-23 06:32:00,51.0,49.0,29.93,North,0,0.0,-999.0,92,0.00,,,-99.99,,2013-03-23 13:32:00,
2013-03-23 06:42:00,51.0,49.0,29.93,North,0,0.0,-999.0,92,0.00,,,-99.99,,2013-03-23 13:42:00,
2013-03-23 06:52:00,51.0,49.0,29.93,North,0,0.0,-999.0,92,0.00,,,-99.99,,2013-03-23 13:52:00,
2013-03-23 07:22:00,51.0,48.0,29.94,North,0,0.0,-999.0,91,0.00,,,-99.99,,2013-03-23 14:22:00,
2013-03-23 07:32:00,51.0,48.0,29.94,North,0,0.0,-999.0,91,0.00,,,-99.99,,2013-03-23 14:32:00,
2013-03-23 07:42:00,51.0,48.0,29.94,North,0,0.0,-999.0,91,0.00,,,-99.99,,2013-03-23 14:42:00,
2013-03-23 07:52:00,51.0,48.0,29.94,North,0,0.0,-999.0,91,0.00,,,-99.99,,2013-03-23 14:52:00,
2013-03-23 08:22:00,52.0,49.0,29.97,North,0,0.0,-999.0,90,0.00,,,-99.99,,2013-03-23 15:22:00,
2013-03-23 08:33:00,52.0,49.0,29.97,North,0,0.0,-999.0,90,0.00,,,-99.99,,2013-03-23 15:33:00,
2013-03-23 08:43:00,52.0,49.0,29.97,North,0,0.0,-999.0,90,0.00,,,-99.99,,2013-03-23 15:43:00,
2013-03-23 08:52:00,52.0,49.0,29.97,North,0,0.0,-999.0,90,0.00,,,-99.99,,2013-03-23 15:52:00,
2013-03-23 09:23:00,53.0,50.0,29.99,North,0,0.0,-999.0,88,0.00,,,-99.99,,2013-03-23 16:23:00,
2013-03-23 09:32:00,53.0,50.0,29.99,North,0,0.0,-999.0,88,0.00,,,-99.99,,2013-03-23 16:32:00,
2013-03-23 09:42:00,53.0,50.0,29.99,North,0,0.0,-999.0,88,0.00,,,-99.99,,2013-03-23 16:42:00,
2013-03-23 09:52:00,53.0,50.0,29.99,North,0,0.0,-999.0,88,0.00,,,-99.99,,2013-03-23 16:52:00,
2013-03-23 10:22:00,56.0,51.0,30.01,ENE,70,1.0,-999.0,83,0.00,,,-99.99,,2013-03-23 17:22:00,
2013-03-23 10:32:00,56.0,51.0,30.01,ENE,70,1.0,-999.0,83,0.00,,,-99.99,,2013-03-23 17:32:00,
2013-03-23 10:42:00,56.0,51.0,30.01,ENE,70,1.0,-999.0,83,0.00,,,-99.99,,2013-03-23 17:42:00,
2013-03-23 10:52:00,56.0,51.0,30.01,ENE,70,1.0,-999.0,83,0.00,,,-99.99,,2013-03-23 17:52:00,
2013-03-23 11:22:00,58.0,51.0,30.00,WSW,240,2.0,-999.0,77,0.00,,,-99.99,,2013-03-23 18:22:00,
2013-03-23 11:32:00,58.0,51.0,30.00,WSW,240,2.0,-999.0,77,0.00,,,-99.99,,2013-03-23 18:32:00,
2013-03-23 11:42:00,58.0,51.0,30.00,WSW,240,2.0,-999.0,77,0.00,,,-99.99,,2013-03-23 18:42:00,
2013-03-23 11:52:00,58.0,51.0,30.00,WSW,240,2.0,-999.0,77,0.00,,,-99.99,,2013-03-23 18:52:00,
2013-03-23 12:22:00,59.0,51.0,30.00,SSW,200,3.0,-999.0,74,0.00,,,-99.99,,2013-03-23 19:22:00,
2013-03-23 12:32:00,59.0,51.0,30.00,SSW,200,3.0,-999.0,74,0.00,,,-99.99,,2013-03-23 19:32:00,
2013-03-23 12:42:00,59.0,51.0,30.00,SSW,200,3.0,-999.0,74,0.00,,,-99.99,,2013-03-23 19:42:00,
2013-03-23 12:52:00,59.0,51.0,30.00,SSW,200,3.0,-999.0,74,0.00,,,-99.99,,2013-03-23 19:52:00,
2013-03-23 13:22:00,59.0,51.0,30.00,West,270,7.0,-999.0,76,0.00,,,-99.99,,2013-03-23 20:22:00,
2013-03-23 13:32:00,59.0,51.0,30.00,West,270,7.0,-999.0,76,0.00,,,-99.99,,2013-03-23 20:32:00,
2013-03-23 13:42:00,59.0,51.0,30.00,West,270,7.0,-999.0,76,0.00,,,-99.99,,2013-03-23 20:42:00,
2013-03-23 13:52:00,59.0,51.0,30.00,West,270,7.0,-999.0,76,0.00,,,-99.99,,2013-03-23 20:52:00,
2013-03-23 14:22:00,59.0,51.0,29.99,West,260,5.0,-999.0,76,0.00,,,-99.99,,2013-03-23 21:22:00,
2013-03-23 14:32:00,59.0,51.0,29.99,West,260,5.0,-999.0,76,0.00,,,-99.99,,2013-03-23 21:32:00,
2013-03-23 14:43:00,59.0,51.0,29.99,West,260,5.0,-999.0,76,0.00,,,-99.99,,2013-03-23 21:43:00,
2013-03-23 14:53:00,59.0,51.0,29.99,West,260,5.0,-999.0,76,0.00,,,-99.99,,2013-03-23 21:53:00,
2013-03-23 15:23:00,61.0,52.0,29.96,West,270,7.0,-999.0,73,0.00,,,-99.99,,2013-03-23 22:23:00,
2013-03-23 15:32:00,61.0,52.0,29.96,West,270,7.0,-999.0,73,0.00,,,-99.99,,2013-03-23 22:32:00,
2013-03-23 15:42:00,61.0,52.0,29.96,West,270,7.0,-999.0,73,0.00,,,-99.99,,2013-03-23 22:42:00,
2013-03-23 15:52:00,61.0,52.0,29.96,West,270,7.0,-999.0,73,0.00,,,-99.99,,2013-03-23 22:52:00,
2013-03-23 16:22:00,62.0,53.0,29.95,West,280,4.0,-999.0,72,0.00,,,-99.99,,2013-03-23 23:22:00,
2013-03-23 16:32:00,62.0,53.0,29.95,West,280,4.0,-999.0,72,0.00,,,-99.99,,2013-03-23 23:32:00,
2013-03-23 16:42:00,62.0,53.0,29.95,West,280,4.0,-999.0,72,0.00,,,-99.99,,2013-03-23 23:42:00,
2013-03-23 16:52:00,62.0,53.0,29.95,West,280,4.0,-999.0,72,0.00,,,-99.99,,2013-03-23 23:52:00,
2013-03-23 17:22:00,65.0,53.0,29.95,WNW,290,4.0,-999.0,65,0.00,,,-99.99,,2013-03-24 00:22:00,
2013-03-23 17:32:00,65.0,53.0,29.95,WNW,290,4.0,-999.0,65,0.00,,,-99.99,,2013-03-24 00:32:00,
2013-03-23 17:42:00,65.0,53.0,29.95,WNW,290,4.0,-999.0,65,0.00,,,-99.99,,2013-03-24 00:42:00,
2013-03-23 17:52:00,65.0,53.0,29.95,WNW,290,4.0,-999.0,65,0.00,,,-99.99,,2013-03-24 00:52:00,
2013-03-23 18:22:00,60.0,52.0,29.95,West,270,4.0,-999.0,75,0.00,,,-99.99,,2013-03-24 01:22:00,
2013-03-23 18:32:00,60.0,52.0,29.95,West,270,4.0,-999.0,75,0.00,,,-99.99,,2013-03-24 01:32:00,
2013-03-23 18:42:00,60.0,52.0,29.95,West,270,4.0,-999.0,75,0.00,,,-99.99,,2013-03-24 01:42:00,
2013-03-23 18:52:00,60.0,52.0,29.95,West,270,4.0,-999.0,75,0.00,,,-99.99,,2013-03-24 01:52:00,
2013-03-23 19:22:00,54.0,50.0,29.97,West,260,6.0,-999.0,87,0.00,,,-99.99,,2013-03-24 02:22:00,
2013-03-23 19:32:00,54.0,50.0,29.97,West,260,6.0,-999.0,87,0.00,,,-99.99,,2013-03-24 02:32:00,
2013-03-23 19:42:00,54.0,50.0,29.97,West,260,6.0,-999.0,87,0.00,,,-99.99,,2013-03-24 02:42:00,
2013-03-23 19:52:00,54.0,50.0,29.97,West,260,6.0,-999.0,87,0.00,,,-99.99,,2013-03-24 02:52:00,
2013-03-23 20:22:00,53.0,50.0,29.97,West,270,2.0,-999.0,89,0.00,,,-99.99,,2013-03-24 03:22:00,
2013-03-23 20:33:00,53.0,50.0,29.97,West,270,2.0,-999.0,89,0.00,,,-99.99,,2013-03-24 03:33:00,
2013-03-23 20:42:00,53.0,50.0,29.97,West,270,2.0,-999.0,89,0.00,,,-99.99,,2013-03-24 03:42:00,
2013-03-23 20:52:00,53.0,50.0,29.97,West,270,2.0,-999.0,89,0.00,,,-99.99,,2013-03-24 03:52:00,
2013-03-23 21:22:00,54.0,49.0,29.99,North,0,0.0,-999.0,82,0.00,,,-99.99,,2013-03-24 04:22:00,
2013-03-23 21:32:00,54.0,49.0,29.99,North,0,0.0,-999.0,82,0.00,,,-99.99,,2013-03-24 04:32:00,
2013-03-23 21:42:00,54.0,49.0,29.99,North,0,0.0,-999.0,82,0.00,,,-99.99,,2013-03-24 04:42:00,
2013-03-23 21:52:00,54.0,49.0,29.99,North,0,0.0,-999.0,82,0.00,,,-99.99,,2013-03-24 04:52:00,
2013-03-23 22:22:00,53.0,49.0,30.01,North,0,0.0,-999.0,86,0.00,,,-99.99,,2013-03-24 05:22:00,
2013-03-23 22:32:00,53.0,49.0,30.01,North,0,0.0,-999.0,86,0.00,,,-99.99,,2013-03-24 05:32:00,
2013-03-23 22:42:00,53.0,49.0,30.01,North,0,0.0,-999.0,86,0.00,,,-99.99,,2013-03-24 05:42:00,
2013-03-23 22:52:00,53.0,49.0,30.01,North,0,0.0,-999.0,86,0.00,,,-99.99,,2013-03-24 05:52:00,
2013-03-23 23:22:00,53.0,50.0,30.02,North,0,0.0,-999.0,90,0.00,,,-99.99,,2013-03-24 06:22:00,
2013-03-23 23:32:00,53.0,50.0,30.02,North,0,0.0,-999.0,90,0.00,,,-99.99,,2013-03-24 06:32:00,
2013-03-23 23:42:00,53.0,50.0,30.02,North,0,0.0,-999.0,90,0.00,,,-99.99,,2013-03-24 06:42:00,
2013-03-23 23:52:00,53.0,50.0,30.02,North,0,0.0,-999.0,90,0.00,,,-99.99,,2013-03-24 06:52:00,